Dewpoint
24 17 17 19 19 19 20 20 19 19 19 21 19 17 16 15 16 19 20 22 22 17 16 15 15 15 15 16 15 15 16 12 10 10 11 12 12 13 14 17 19 20 22 25 25 23 23 23 22 21 19 20 21 22 23 23 23 23 22 24 22 22 23 22 22 22 22 20 20 19 18 18 17 18 20 22 20 19 17 18 18 18 18 17 17 20
23 18 21 22 21 20 20 21 22 20 18 15 13 12 13 15 13 16 17 23 23 18 18 18 16 16 15 15 14 16 13 9 10 11 13 14 17 19 19 19 20 20 23 22 22 24 23 21 21 21 22 25 22 23 23 23 24 24 24 23 22 22 22 22 23 24 22 22 22 20 19 18 17 17 17 17 16 17 19 20 19 19 18 17 17 19
19 20 22 24 24 24 24 23 20 17 15 19 13 15 13 16 18 19 21 22 22 19 17 17 15 15 14 14 15 16 15 15 15 15 16 18 18 18 18 19 19 19 20 20 21 22 22 23 23 22 22 23 23 23 24 24 25 25 25 24 23 22 22 22 24 24 22 22 23 22 21 20 19 18 17 17 18 18 18 17 17 18 17 17 17 17
13 19 22 22 24 18 19 21 18 19 20 13 12 11 14 18 11 13 20 22 20 17 17 18 15 16 13 13 15 16 17 18 20 20 20 19 17 18 18 19 19 19 20 20 20 21 21 22 23 24 24 24 24 25 24 24 24 24 24 23 22 21 21 22 23 25 23 24 24 22 22 21 21 19 22 21 20 18 17 16 16 16 17 17 16 16
16 19 21 23 22 19 17 20 19 18 17 21 17 13 13 13 14 14 15 20 22 19 20 15 13 10 13 12 14 16 18 18 19 19 20 20 22 22 22 22 21 20 21 20 20 21 22 22 23 23 25 24 24 25 24 23 23 22 23 22 21 21 21 22 23 22 23 22 20 21 20 21 20 20 20 19 19 19 20 22 20 19 18 17 17 16
21 23 23 21 20 20 18 18 21 18 15 17 20 17 15 15 16 17 17 15 11 10 16 14 8 6 11 13 14 16 17 17 18 19 19 20 20 21 20 21 22 23 23 21 21 22 22 23 24 24 24 24 24 24 25 23 22 21 21 20 19 19 21 20 20 21 21 19 19 19 18 17 17 18 18 19 19 19 19 18 18 18 17 17 17 17
21 21 21 20 19 20 20 17 20 19 14 12 17 20 18 17 16 16 15 14 8 5 10 16 5 2 11 12 13 16 17 17 18 19 19 20 20 21 21 21 22 22 22 22 22 22 23 23 23 23 23 23 23 23 23 22 20 19 19 18 17 17 20 18 18 18 19 17 17 17 17 17 17 17 18 19 19 20 20 20 19 19 18 17 16 15
21 20 19 21 20 20 18 15 19 18 16 16 20 19 16 15 15 15 14 13 12 16 19 17 10 5 4 11 14 16 17 17 18 19 19 20 20 21 21 22 23 23 22 22 22 23 23 23 22 22 23 23 23 22 21 20 19 17 17 17 15 16 18 16 15 16 15 15 15 15 14 16 16 16 17 18 18 20 20 19 18 19 19 19 18 16
20 20 18 19 20 18 16 17 19 20 15 19 20 19 17 17 16 15 14 14 15 11 12 11 16 8 5 10 12 15 16 16 17 18 19 20 20 21 21 22 23 23 23 22 22 22 22 22 22 22 21 22 21 21 19 17 17 15 15 15 14 14 14 13 13 13 11 14 14 13 13 13 14 14 14 15 16 16 17 17 18 18 18 18 17 17
23 22 22 20 19 18 21 22 21 21 18 20 21 21 20 20 19 17 14 13 10 7 6 9 11 3 4 10 11 13 16 16 17 18 19 20 21 21 22 22 22 23 23 23 23 23 23 22 22 22 21 21 20 18 18 15 14 13 13 14 13 12 11 11 10 10 10 12 14 12 10 8 8 9 11 12 12 13 15 16 17 18 18 18 17 16
22 28 27 22 21 19 20 20 22 22 21 22 20 16 17 16 16 14 12 8 5 2 8 10 13 7 2 10 10 13 14 17 18 19 19 20 21 21 22 22 23 23 23 23 23 23 23 22 20 21 20 20 19 17 15 14 12 12 13 13 11 10 9 9 9 9 9 11 11 8 7 8 8 9 8 7 7 7 7 7 9 10 12 15 17 18
22 23 21 20 27 24 19 19 23 22 22 17 14 11 11 11 10 9 7 7 0 -1 4 8 12 7 1 6 13 15 15 18 18 18 19 19 20 21 21 22 22 23 23 24 24 24 23 21 20 20 19 19 18 16 13 11 11 12 11 11 8 7 8 9 8 7 7 8 7 7 8 8 8 6 4 2 2 2 4 7 8 8 9 11 14 16
14 20 22 23 30 22 19 16 17 21 21 18 16 15 5 6 2 -4 3 -0 -2 1 5 8 10 7 7 10 14 16 17 18 18 20 19 19 20 21 21 22 23 23 23 25 25 24 22 22 20 19 19 18 17 15 11 9 9 10 9 9 8 7 8 7 5 5 5 6 7 8 9 6 6 2 1 1 2 4 7 7 8 8 9 10 10 12
8 16 21 22 21 24 19 10 9 9 15 14 12 8 4 -3 -7 -6 -2 -4 -2 5 8 8 7 6 10 12 16 16 18 19 19 20 20 20 20 21 22 22 23 24 25 26 25 24 22 22 21 19 18 16 14 11 8 7 8 8 7 7 8 7 6 4 3 4 5 7 8 8 5 2 -0 -0 2 2 3 6 7 8 8 9 10 10 11 12
1 7 10 19 13 20 19 13 12 11 13 14 16 8 5 3 -2 -4 -9 -4 -2 2 5 8 3 -0 8 10 17 17 19 20 20 20 20 21 22 22 22 22 23 24 26 26 23 21 21 22 20 18 16 14 12 9 7 6 6 6 5 8 6 3 2 2 4 5 6 8 7 1 -1 -1 0 2 3 3 7 7 7 8 9 9 11 12 14 15
6 6 9 20 19 19 16 21 18 14 10 12 14 12 8 6 10 1 0 -3 -4 1 2 2 -1 9 11 17 19 16 18 19 21 20 21 22 22 22 22 22 23 24 26 26 23 20 20 21 18 16 14 11 9 7 6 5 5 4 6 6 3 1 1 2 6 6 7 4 -1 -3 -3 -1 3 6 4 5 7 6 4 4 7 7 6 4 5 6
12 7 12 20 17 16 18 19 20 14 4 9 8 3 6 14 10 2 8 7 5 0 -1 1 11 12 14 14 15 16 18 18 19 20 21 21 21 21 21 21 23 24 26 25 23 20 19 18 17 15 11 9 7 6 5 4 2 4 6 3 1 0 1 3 6 6 2 -3 -4 -3 -1 0 2 3 3 2 -2 -3 -1 -1 -3 -0 1 -1 -3 -3
5 9 13 13 12 18 18 20 20 19 15 12 6 8 15 15 12 8 1 -3 -8 -2 1 7 6 7 10 5 15 16 17 18 19 20 21 22 21 19 20 22 22 24 26 24 21 20 18 17 15 13 10 7 5 5 3 0 0 5 4 1 -1 1 2 3 5 -1 -3 -4 -4 -2 -0 1 2 -2 -5 -7 -5 -5 -4 -5 -6 -5 -5 -7 -7 -5
11 9 10 14 16 18 19 20 15 18 20 13 10 12 10 3 4 8 1 -2 -3 -5 -5 1 4 6 9 6 16 15 16 17 19 20 20 21 21 19 20 21 22 23 24 21 18 18 18 15 13 11 7 6 4 4 2 -1 1 5 2 0 0 1 2 4 -2 -4 -5 -4 -4 -2 0 1 -3 -5 -7 -7 -5 -5 -4 -5 -5 -5 -6 -7 -5 -3
14 4 10 13 14 15 13 12 9 12 15 18 17 12 14 7 3 1 4 1 4 -2 -3 -1 3 4 8 12 15 15 17 18 16 17 19 20 20 19 20 20 22 22 23 20 18 18 17 13 10 8 5 4 3 2 -0 -2 2 3 1 -0 0 -0 0 -0 -4 -5 -5 -4 -3 -2 0 -3 -5 -7 -8 -7 -6 -6 -5 -5 -5 -7 -9 -8 -5 -6
13 10 4 10 12 13 10 12 9 11 6 7 9 6 8 3 11 8 3 4 5 -6 -7 -3 -3 -1 13 15 18 18 19 19 17 16 18 19 17 18 19 20 20 21 22 19 19 16 14 11 8 6 4 3 2 1 -1 -2 2 2 0 -1 -2 -3 -5 -5 -6 -6 -5 -4 -3 -1 -3 -6 -8 -8 -8 -7 -6 -6 -6 -5 -6 -8 -8 -7 -8 -7
7 10 8 11 11 10 10 13 12 12 12 11 13 8 11 4 5 2 6 -1 -1 1 2 -6 3 -3 12 19 20 19 19 19 18 17 18 17 14 15 17 19 19 21 22 21 15 12 11 8 6 4 3 2 -0 -2 -3 -2 2 -0 -1 -2 -3 -5 -6 -6 -6 -6 -5 -4 -4 -2 -6 -7 -9 -10 -9 -7 -7 -6 -7 -7 -8 -9 -8 -9 -8 -8
12 12 12 11 11 11 11 13 15 15 14 14 11 10 13 6 5 2 1 3 3 4 2 4 4 5 17 21 20 19 17 17 17 16 16 14 12 13 17 19 19 21 15 18 13 10 9 7 5 3 1 -0 -2 -3 -3 -1 -0 -1 -1 -2 -4 -6 -6 -6 -7 -7 -6 -6 -4 -6 -7 -8 -10 -10 -9 -8 -8 -8 -9 -9 -9 -8 -8 -9 -8 -7
23 9 3 8 9 8 9 11 13 15 15 11 12 12 10 9 6 7 6 6 7 5 6 8 7 11 20 23 21 19 17 16 16 14 14 13 12 13 17 19 17 18 13 15 10 8 7 5 3 1 -1 -2 -4 -3 -2 -2 -2 -1 -1 -4 -6 -6 -7 -8 -8 -8 -7 -6 -5 -6 -8 -9 -10 -11 -10 -10 -9 -10 -9 -9 -8 -8 -8 -9 -9 -9
8 11 9 4 3 5 6 7 10 12 12 12 12 14 12 7 6 4 7 4 6 6 10 8 7 10 20 19 17 15 14 14 14 14 14 14 11 13 18 15 16 13 12 10 8 6 6 4 2 -1 -2 -4 -4 -3 -2 -2 -1 -1 -3 -5 -6 -7 -8 -8 -8 -8 -8 -6 -6 -7 -8 -10 -11 -11 -11 -11 -10 -9 -9 -9 -9 -9 -9 -10 -10 -10
8 10 7 2 1 3 3 2 5 7 7 13 14 11 10 8 9 7 8 6 6 8 12 10 8 19 21 16 12 12 12 13 14 15 15 14 11 15 16 12 14 10 10 8 7 6 4 2 -1 -3 -4 -5 -4 -2 -2 -3 -3 -3 -4 -5 -6 -7 -8 -9 -9 -8 -8 -6 -6 -8 -9 -11 -11 -11 -11 -10 -10 -10 -10 -10 -11 -11 -10 -10 -10 -10
6 10 12 8 6 8 10 10 11 18 14 11 13 12 10 8 9 10 12 9 10 11 13 16 17 18 17 12 10 11 13 14 13 13 13 13 11 16 17 11 11 9 8 7 6 5 2 -1 -3 -4 -4 -5 -3 -3 -3 -3 -4 -5 -5 -5 -6 -7 -8 -9 -9 -8 -8 -6 -7 -9 -10 -11 -11 -11 -11 -11 -10 -11 -11 -11 -11 -11 -11 -10 -10 -10
4 7 10 12 12 12 12 12 13 16 13 13 10 11 11 9 9 11 11 12 18 14 12 16 15 11 15 11 10 11 14 14 13 13 13 12 11 15 12 10 13 8 7 5 4 2 -1 -3 -4 -4 -5 -5 -5 -4 -3 -4 -5 -6 -5 -5 -6 -7 -9 -9 -9 -9 -8 -7 -8 -10 -10 -10 -11 -11 -11 -10 -11 -11 -11 -11 -11 -11 -11 -10 -10 -10
7 7 5 9 8 12 13 13 14 14 14 14 13 12 10 12 15 14 15 16 15 12 12 13 13 11 12 10 11 11 15 14 13 13 12 12 13 12 11 10 9 7 4 2 1 -1 -2 -4 -4 -5 -6 -5 -5 -4 -3 -5 -7 -7 -5 -5 -7 -8 -9 -9 -9 -9 -8 -8 -9 -10 -11 -11 -11 -11 -11 -11 -12 -12 -12 -11 -11 -11 -10 -10 -10 -9
7 4 4 7 12 13 12 12 14 14 14 12 11 15 14 14 15 15 15 15 14 12 12 12 10 11 11 11 11 13 16 14 13 13 12 10 11 11 10 9 6 4 2 0 0 -2 -3 -4 -4 -5 -5 -5 -5 -4 -3 -5 -6 -6 -6 -6 -7 -9 -9 -10 -10 -10 -9 -10 -10 -11 -11 -11 -11 -11 -12 -12 -12 -12 -12 -12 -12 -10 -10 -10 -9 -8
12 8 13 5 5 10 11 11 11 14 11 12 15 16 15 14 13 12 9 12 10 6 8 11 9 7 11 12 13 15 15 14 13 11 10 11 10 10 8 7 4 2 -0 -1 0 -2 -4 -4 -4 -4 -5 -6 -5 -4 -4 -5 -7 -7 -7 -8 -9 -9 -10 -10 -10 -10 -10 -10 -10 -11 -11 -11 -12 -12 -12 -12 -12 -12 -11 -12 -11 -10 -10 -10 -10 -10
7 9 3 -0 7 9 10 11 12 14 12 10 12 14 15 13 10 12 7 11 10 8 10 8 8 6 13 14 15 14 13 12 11 10 9 11 10 9 7 5 2 -0 -2 -2 -1 -2 -3 -3 -4 -4 -5 -6 -6 -4 -4 -6 -7 -8 -9 -10 -10 -10 -10 -10 -11 -11 -10 -10 -10 -11 -11 -11 -12 -12 -11 -12 -12 -11 -11 -11 -11 -11 -11 -11 -11 -10
5 8 8 2 6 -1 5 11 12 10 10 3 4 13 15 13 13 12 13 13 12 14 7 5 8 13 13 14 13 12 12 11 10 9 10 10 9 8 5 2 -1 -1 -3 -4 -3 -2 -3 -3 -4 -5 -6 -6 -6 -4 -5 -6 -7 -9 -10 -10 -11 -10 -11 -11 -11 -11 -11 -11 -11 -12 -12 -12 -12 -12 -12 -12 -12 -12 -12 -12 -13 -12 -12 -12 -11 -10
6 6 7 7 6 -1 7 11 9 4 -1 0 12 14 15 14 13 12 12 13 13 12 11 13 14 14 14 13 13 12 12 11 10 9 10 8 7 5 3 1 -1 -2 -3 -5 -3 -3 -3 -3 -4 -5 -6 -6 -5 -4 -5 -6 -8 -9 -10 -11 -11 -11 -11 -11 -11 -11 -11 -11 -12 -12 -12 -12 -12 -12 -12 -12 -12 -12 -13 -13 -13 -13 -12 -11 -10 -10
6 7 7 5 8 7 8 7 5 -4 1 7 16 16 15 16 14 13 13 13 15 15 14 12 13 13 14 13 13 13 12 11 10 9 7 6 4 3 1 1 -2 -4 -5 -5 -3 -3 -3 -3 -4 -6 -7 -6 -5 -5 -6 -7 -8 -9 -10 -11 -11 -11 -11 -11 -11 -11 -11 -12 -12 -12 -12 -12 -12 -12 -13 -13 -13 -13 -14 -14 -14 -13 -12 -12 -10 -10
6 6 3 7 1 3 4 1 -1 -0 5 16 17 16 16 15 15 14 12 14 14 13 13 13 13 13 13 13 13 13 11 10 9 9 7 4 2 2 1 -1 -4 -5 -6 -6 -3 -3 -3 -4 -5 -7 -7 -5 -5 -6 -7 -8 -9 -10 -11 -11 -11 -11 -11 -11 -12 -12 -12 -12 -12 -13 -13 -12 -13 -13 -13 -14 -14 -15 -14 -14 -14 -14 -12 -11 -10 -9
11 3 2 7 6 7 8 4 5 2 13 11 13 14 14 14 14 14 8 11 14 14 13 13 13 13 13 12 12 11 10 9 7 6 5 4 2 0 -1 -3 -5 -6 -6 -6 -4 -4 -3 -4 -6 -7 -6 -6 -6 -7 -8 -9 -10 -10 -11 -11 -11 -11 -12 -12 -12 -12 -12 -12 -13 -13 -12 -13 -13 -14 -14 -15 -15 -15 -15 -14 -14 -13 -12 -11 -10 -9
14 9 8 7 9 7 1 1 -3 -6 -11 3 14 16 16 15 15 15 13 11 14 15 14 14 13 12 12 12 12 10 9 7 3 4 5 4 1 -0 -2 -4 -5 -6 -6 -6 -5 -4 -4 -5 -6 -7 -7 -7 -8 -8 -9 -9 -10 -11 -11 -11 -12 -12 -12 -13 -13 -13 -12 -13 -13 -13 -13 -13 -14 -15 -15 -15 -16 -16 -15 -14 -14 -13 -11 -11 -10 -10
11 11 8 7 6 4 2 -3 -5 -7 -6 11 14 15 15 16 16 16 8 6 16 15 15 14 13 12 12 11 11 10 8 3 3 5 5 3 1 -1 -3 -4 -5 -6 -6 -6 -6 -4 -5 -6 -6 -7 -7 -8 -9 -9 -9 -10 -10 -11 -12 -12 -12 -12 -13 -13 -13 -13 -13 -13 -13 -13 -13 -14 -14 -15 -15 -16 -16 -16 -16 -15 -14 -12 -11 -10 -10 -9
6 3 4 2 -2 2 0 -1 -5 -8 -2 11 15 15 15 16 15 7 -2 2 13 15 15 14 13 12 11 12 12 10 7 3 4 7 3 0 -0 -2 -3 -4 -5 -6 -7 -6 -6 -4 -5 -5 -7 -8 -9 -9 -9 -9 -10 -10 -11 -11 -12 -12 -12 -13 -14 -13 -12 -12 -12 -13 -13 -13 -14 -14 -15 -15 -16 -16 -16 -16 -15 -14 -13 -12 -11 -10 -10 -10
4 4 3 1 -0 -1 2 -8 -8 -4 14 15 15 16 16 16 11 0 -2 8 15 15 15 13 12 11 12 12 11 8 9 8 8 6 -1 -1 -2 -3 -3 -4 -4 -6 -7 -6 -5 -1 -5 -7 -7 -8 -9 -9 -9 -9 -10 -11 -11 -12 -12 -12 -13 -14 -13 -12 -12 -12 -13 -13 -14 -14 -15 -15 -16 -16 -16 -16 -16 -15 -14 -14 -12 -12 -11 -11 -10 -10
4 -2 -1 -7 -0 -2 -5 -1 -0 -0 7 15 16 16 16 10 2 2 13 15 14 13 13 13 12 12 11 12 11 9 8 7 6 1 -1 -3 -3 -3 -3 -4 -4 -6 -6 -5 -3 -4 -6 -7 -8 -9 -9 -9 -9 -10 -10 -11 -12 -12 -13 -14 -14 -13 -12 -12 -12 -13 -14 -14 -15 -15 -16 -16 -16 -16 -17 -16 -15 -15 -15 -13 -12 -12 -12 -11 -11 -11
6 3 3 1 3 -0 -5 -6 -2 -3 4 18 17 13 15 9 10 16 15 14 14 13 13 12 12 12 12 10 9 8 6 4 2 -1 -2 -4 -4 -4 -3 -4 -5 -6 -7 -7 -6 -6 -6 -7 -8 -9 -9 -9 -10 -10 -11 -12 -13 -13 -14 -14 -14 -12 -12 -12 -13 -14 -14 -15 -16 -16 -17 -17 -17 -17 -17 -17 -16 -15 -15 -14 -13 -13 -12 -12 -12 -11
7 -0 -3 -0 6 3 -4 -1 0 10 16 18 16 12 14 15 16 15 15 13 13 13 12 11 11 12 10 8 7 4 3 3 1 -2 -3 -4 -4 -4 -4 -4 -5 -7 -7 -6 -6 -6 -6 -8 -9 -9 -10 -10 -10 -11 -11 -12 -13 -14 -14 -14 -13 -12 -12 -13 -14 -15 -16 -16 -17 -17 -17 -18 -18 -18 -17 -17 -15 -15 -15 -15 -14 -13 -13 -12 -12 -11
11 5 5 8 9 8 5 9 10 18 18 18 16 15 15 16 16 16 15 15 14 12 10 9 11 10 8 6 4 3 2 2 -1 -3 -4 -5 -4 -4 -4 -5 -6 -7 -7 -6 -7 -6 -8 -8 -9 -10 -10 -11 -11 -11 -12 -12 -14 -14 -15 -14 -13 -13 -14 -14 -15 -16 -17 -18 -18 -18 -19 -18 -18 -18 -17 -16 -16 -16 -15 -15 -14 -14 -13 -12 -11 -10
13 13 12 10 10 11 12 12 16 17 18 16 17 17 15 15 16 17 17 13 11 10 10 10 10 8 6 4 2 2 1 0 -2 -4 -5 -5 -4 -5 -4 -5 -7 -7 -6 -6 -7 -7 -8 -9 -10 -11 -12 -12 -12 -12 -12 -13 -14 -15 -15 -13 -13 -13 -14 -15 -17 -18 -18 -18 -19 -19 -19 -19 -19 -19 -17 -17 -16 -16 -15 -15 -14 -14 -13 -12 -11 -9
9 13 13 9 10 9 2 14 15 13 15 16 15 15 16 16 14 14 11 11 10 10 10 10 7 6 5 3 2 1 -0 -2 -4 -5 -5 -5 -5 -5 -5 -6 -7 -7 -7 -7 -7 -8 -9 -10 -11 -12 -12 -13 -13 -13 -13 -14 -14 -14 -14 -14 -13 -14 -15 -16 -17 -18 -18 -19 -19 -19 -19 -20 -19 -18 -17 -17 -17 -16 -15 -14 -14 -14 -13 -11 -10 -8
7 12 11 11 12 10 8 9 10 15 16 16 14 12 12 12 12 11 12 10 10 11 10 7 6 5 4 1 0 -1 -2 -3 -5 -5 -5 -5 -6 -6 -6 -7 -7 -7 -7 -7 -8 -8 -10 -11 -12 -12 -13 -13 -13 -13 -14 -14 -15 -14 -15 -14 -14 -15 -16 -17 -18 -18 -19 -20 -20 -19 -20 -19 -17 -17 -18 -18 -17 -16 -16 -15 -15 -14 -12 -10 -8 -6
13 14 7 12 12 12 12 11 13 15 14 15 15 13 13 13 11 10 9 10 10 8 7 5 4 4 3 0 -1 -3 -4 -5 -5 -6 -6 -6 -6 -6 -6 -7 -7 -8 -8 -8 -9 -9 -10 -11 -12 -13 -14 -14 -14 -14 -15 -15 -15 -15 -15 -14 -15 -16 -17 -18 -18 -19 -20 -20 -20 -20 -19 -19 -18 -18 -18 -18 -17 -16 -16 -16 -15 -13 -10 -7 -6 -6
14 11 14 12 10 9 10 10 15 10 11 13 14 14 13 11 9 9 9 9 8 7 5 4 3 3 2 -1 -3 -4 -5 -6 -6 -7 -7 -7 -6 -6 -6 -7 -8 -8 -9 -9 -9 -10 -11 -12 -13 -14 -14 -14 -14 -15 -15 -16 -15 -15 -15 -15 -16 -16 -18 -18 -19 -20 -20 -20 -21 -21 -20 -19 -19 -19 -18 -18 -17 -17 -17 -14 -8 -7 -8 -7 -4 -2
13 13 14 11 10 10 12 14 16 15 15 14 14 14 13 9 8 8 8 7 6 6 4 2 2 1 -1 -2 -5 -5 -6 -7 -7 -7 -8 -7 -7 -6 -7 -8 -9 -9 -10 -10 -10 -11 -12 -12 -13 -15 -15 -15 -15 -16 -16 -16 -16 -16 -16 -15 -16 -17 -18 -19 -19 -20 -20 -20 -21 -20 -19 -19 -20 -19 -19 -18 -18 -18 -17 -17 -16 -3 2 -2 -3 -1